Hourly Weather Roundup

ASUS45 KTFX 251310

RWRMT 

Montana Regional Weather Roundup

National Weather Service Great Falls MT

600 AM MST TUE JAN 25 2022



NOTE: "FAIR" indicates few or no clouds below 12,000 feet with no

significant weather and/or obstructions to visibility.



MTZ001.007-043-251400-

West of the divide

  

CITY           SKY/WX    TMP DP  RH WIND       PRES   REMARKS

Kalispell      CLOUDY    20  18  92 CALM      30.34F                  

Missoula       CLOUDY    22  19  89 SE5       30.37S WCI  16          

Butte          CLOUDY    19  15  84 CALM      30.26S                  

Anaconda         N/A     21  19  93 W3        30.28F                  

Deer Lodge       N/A     21  21 100 CALM      30.33S                  

Hamilton       CLOUDY    21  19  93 CALM      30.35S                  

Mullan Pass    CLEAR     23  15  71 S3        30.22F                  

Thompson Falls   N/A     27  21  80 CALM      30.39F                  

--------------------------------



MTZ008-052.055-251400-

Southwest Montana

  

CITY           SKY/WX    TMP DP  RH WIND       PRES   REMARKS

Bozeman        CLOUDY    21  20  96 CALM      30.27S FOG              

Dillon         CLOUDY    20  16  84 S8        30.25R WCI  10          

Ennis          CLOUDY    25  19  80 N8        30.27R WCI  16          

Three Forks      N/A     19  18  93 CALM      30.22S FOG              

Twin Bridges   CLOUDY    23  19  86 N6        30.28R WCI  16          

--------------------------------



MTZ009-010-012-014-046-048-049-054-251400-

East Slopes and Central Montana

  

CITY           SKY/WX    TMP DP  RH WIND       PRES   REMARKS

Cut Bank       CLEAR     24  18  77 W6        30.21S WCI  17          

Great Falls    LGT SNOW  28  26  92 SW7       30.25F FOG     WCI  21  

Malmstrom AFB  FLURRIES  28  28  99 SW7       30.27S WCI  21          

Augusta        FAIR      21  17  83 CALM      30.22F                  

Bowmans Corner FAIR      23  20  88 SW7       30.22S WCI  15          

Choteau          N/A     25  18  74 SW7       30.23S WCI  17          

Fairfield      FAIR      27  20  74 CALM      30.23F                  

Power          MOCLDY    23  22  98 W6        30.23F WCI  16          

Raynesford     FLURRIES  28  28 100 SW8       30.25S WCI  20          

Ulm            LGT SNOW  28  28 100 SW3       30.26S                  

--------------------------------



MTZ011-013-016-021-045-047-050-051-251400-

North Central Montana

  

CITY           SKY/WX    TMP DP  RH WIND       PRES   REMARKS

Havre          CLOUDY    19  16  88 E9        30.28F WCI   8          

Lewistown      LGT SNOW  26  24  92 VRB6      30.21R FOG     WCI  19  

Denton         CLOUDY    27  25  92 NW15      30.20S WCI  16          

N Bar Ranch    CLOUDY    18  16  93 SE3       30.20R                  

Roy            CLOUDY    17  14  90 SE7       30.23R WCI   7          

Stanford       FLURRIES  27  25  92 NW20      30.21R WCI  13          

Winifred       FLURRIES  23  22  94 N3        30.23R                  

--------------------------------



MTZ017.020-022.027-061-062-251400-

Northeast Montana

  

CITY           SKY/WX    TMP DP  RH WIND       PRES   REMARKS

Glasgow        CLOUDY     2  -4  76 E5        30.35R WCI  -8          

Glendive       PTCLDY    -4  -9  79 CALM      30.35R                  

Jordan           N/A      9   3  77 SE5       30.31R WCI   1          

Malta          CLEAR     -2  -4  92 SW3       30.35R                  

Plentywood     PTCLDY   -15 -20  76 NW10      30.35R WCI -35          

Poplar           N/A     -6  -9  84 CALM      30.40R                  

Scobey           N/A    -11 -20  64 CALM      30.26R                  

Sidney         CLEAR     -6 -11  79 W3        30.40R                  

Wolf Point     CLEAR     -9 -14  78 NW5       30.40R WCI -20          

--------------------------------



MTZ028.42-056.058-251400-

Southcentral and southeast Montana

  

CITY           SKY/WX    TMP DP  RH WIND       PRES   REMARKS

Baker          MOCLDY    -2  -8  76 CALM      30.27RBig Timber     CLOUDY    27  21  80 W21       30.22R WCI  13          

Billings       MOCLDY    26  23  88 NE9       30.22R WCI  17          

Forsyth          N/A     16  16 100 E5        30.30R WCI   9          

Hardin         CLOUDY    25  23  93 N9        30.25R WCI  15          

Harlowton      FLURRIES  25  24  93 W5        30.21S WCI  20          

Livingston     CLOUDY    27  21  78 SW18      30.22S WCI  14          

Miles City     CLOUDY    10   4  76 NE12      30.31S WCI  -5          

Roundup          N/A     19  14  79 CALM      30.14R                  

--------------------------------



Regional Reports...Dakotas/MN

  

CITY           SKY/WX    TMP DP  RH WIND       PRES   REMARKS

Williston      SUNNY    -12 -19  71 NW8       30.33R WCI -29          

Minot          CLEAR    -11 -21  61 W15       30.36R WCI -33          

Dickinson      CLEAR     -7 -13  75 NW5       30.27R WCI -18          

Beach          FAIR      -9 -15  77 N7        30.30S WCI -24          

Bowman         FAIR       0  -4  85 N10       30.25R WCI -17          

Crosby         FAIR     -17 -22  76 NW12        N/A  WCI -38          

Glen Ullin     FAIR      -6 -15  65 NW9       30.34R WCI -22          

Hettinger      CLEAR     -7 -13  75 N5        30.28R WCI -18          

Tioga          FAIR     -22 -26  83 W6        30.35R WCI -38          

Watford City     N/A    -11 -17  77 S5        30.38R WCI -23          

Bismarck       CLEAR     -8 -16  67 NW5       30.38R WCI -19          

Grand Forks    CLEAR    -22 -26  82 W8        30.38R WCI -41          

Fargo          CLEAR    -18 -25  70 NW7       30.37R WCI -35          

Buffalo SD       N/A      8   4  83 NE5       30.22R WCI   0          

Rapid City     MIX PCPN  11   9  92 N12       30.20R WCI  -3          

Intl Falls     CLEAR    -27 -31  81 W5        30.20R WCI -41          

Duluth         CLEAR    -19 -24  77 NW12      30.14R WCI -41          

Minneapolis    CLEAR    -11 -17  75 W7        30.32R WCI -26          

--------------------------------



Regional Reports...WY/CO/ID/WA/OR

  

CITY           SKY/WX    TMP DP  RH WIND       PRES   REMARKS

Buffalo WY     FLURRIES  27  21  78 N16G23    30.10R WCI  15          

Cody           MOCLDY    23  16  74 SW3       30.19R                  

Gillette       FLURRIES  21  19  92 N12       30.15R WCI   9          

Powell         FLURRIES  23  21  93 NW10      30.16R WCI  12          

Sheridan       LGT SNOW  29  25  85 NW16G24   30.17R FOG     WCI  17  

Boise          CLOUDY    28  24  85 SE7       30.33R WCI  21          

Couer d'Alene  CLOUDY    28  26  92 SE3       30.40R                  

Idaho Falls    CLEAR      4   0  83 N7        30.22R WCI  -8          

Salmon         CLEAR      0  -3  87 E3        30.35R                  

Spokane        FOG       28  26  92 SW5       30.38S VSB 1/4 WCI  23  

Seattle        FOG       33  32  96 E5        30.34S VSB 1/4 WCI  29  

Portland       CLEAR     31  29  92 CALM      30.34R                  

--------------------------------



Other Reports

  

CITY           SKY/WX    TMP DP  RH WIND       PRES   REMARKS

Atlanta        CLOUDY    48  33  56 SW6       29.98R                  

Anchorage      CLOUDY    40  29  64 S12G23    29.73R WCI  33          

Boston         CLOUDY    33  31  92 SW6       29.87R WCI  28          

Chicago        PTCLDY     4  -5  66 NW9       30.19R WCI -10          

Fairbanks      FLURRIES  33  27  78 SW3       29.65R                  

Houston        CLOUDY    49  46  90 N9        29.98R                  

Las Vegas NV   CLEAR     49  19  30 VRB3      29.90R                  

Phoenix AZ     PTCLDY    47  35  63 E7        29.93S                  

Salt Lake City CLOUDY    29  27  92 NW10      30.07R WCI  20          

San Diego      MOCLDY    53  44  71 CALM      29.99S                  

San Francisco  PTCLDY    45  42  89 CALM      30.06S                  

Washington Dul CLOUDY    32  23  69 NW5       29.91R WCI  27          

--------------------------------



Regional Reports...Alberta

  

CITY           SKY/WX    TMP DP  RH WIND       PRES   REMARKS

Calgary        PTCLDY    23  18  80 SW5       30.10F WCI  17          

Cardston         N/A     19  16  86 SW7         N/A  WCI  10          

Crowsnest Pass   N/A      9   7  92 SW1         N/A                   

Del Bonita       N/A     12  12 100 SW6         N/A  WCI   3          

Fort McMurray  CLOUDY    -2  -6  84 E10       29.97F WCI -19          

High Level     CLOUDY     5   3  92 VRB2      29.70                   

Lethbridge     PTCLDY    19  18  93 S9        30.19F WCI   9          

Medicine Hat   MOCLDY    14  10  85 E2        30.24F                  

Milk River       N/A     18  18 100 SE1         N/A                   

Onefour          N/A     19  18  93 VRB16       N/A  WCI   5          

Pincher Creek  CLEAR     19  16  86 W9        30.16F WCI   9          

Raymond          N/A     23  19  86 S6          N/A  WCI  16          

Fort Smith NWT CLOUDY     1  -4  78 SE15G21   29.68F WCI -18          

--------------------------------



Regional Reports...Saskatchewan

  

CITY           SKY/WX    TMP DP  RH WIND       PRES   REMARKS

Assiniboia       N/A    -20 -26  76 W5          N/A  WCI -33          

Coronach         N/A    -15 -20  76 NW6         N/A  WCI -29          

Cypress Hills    N/A      9   5  85 SW3         N/A                   

Estevan        CLEAR    -26 -31  75 MISG      30.37R                  

Moose Jaw        N/A    -20 -26  76 NW2         N/A                   

Prince Albert  CLEAR    -33 -40  68 SW3       30.36F                  

Regina         CLEAR    -26 -31  75 W5        30.37R WCI -40          

Rockglen         N/A     -9 -17  70 W2          N/A                   

Saskatoon      CLOUDY   -22 -29  69 S5        30.34F WCI -36          

Swift Current  CLEAR     -9 -15  77 S12       30.25F WCI -29          

Uranium City     N/A    -11 -17  77 SE5         N/A  WCI -23          

Val Marie        N/A    -13 -18  77 CALM        N/A                   

--------------------------------